User: anonymous   Login
Location: Ferintosh
(52.7647°N, 112.9692°W)
Time: 03:37:19
(UTC+00:00)
Language:

Explorer 7 - Orbit

View from above orbital plane
View from above orbital plane
View from above satellite
View from above satellite

Ground track
Ground track

The orbit data is extracted from the following two-line orbital elements,

1 00022U 59009A   24144.51481110  .00009331  00000-0  55119-3 0  9993
2 00022  50.2762 170.9128 0114491  12.8480 347.5347 15.06761331685688
Epoch (UTC): 23 May 2024 12:21:19
Eccentricity: 0.0114491
inclination: 50.2762°
perigee height: 467 km
apogee height: 625 km
right ascension of ascending node: 170.9128°
argument of perigee: 12.8480°
revolutions per day: 15.06761331
mean anomaly at epoch: 347.5347°
orbit number at epoch: 68568

The dashed part of the orbit path shows where the satellite is in the earth's shadow,  

DLR